Location: Béaulencourt
(50.0796°N, 2.8795°E)
Time: 22:24:53
(UTC+00:00)

Cosmos 1953 - Pass Details

Date: 20 January 2026
Orbit: 475 x 489 km, 82.5° (Epoch: 7 February)

Event Time Altitude Azimuth Distance (km) Brightness Sun altitude
Rises 05:39:46 0° 172° (S) 2,541 6.0 -18.4°
Reaches altitude 10° 05:41:55 10° 165° (SSE) 1,669 5.1 -18.0°
Maximum altitude 05:45:22 41° 94° (E) 718 3.4 -17.5°
Drops below altitude 10° 05:48:52 10° 23° (NNE) 1,692 4.9 -16.9°
Sets 05:51:04 0° 16° (NNE) 2,582 5.8 -16.6°
